.
WxDataArchive / Data Records for 2015-07-01
2015-06-30 July 2015 2015-07-02

Data Records for Wednesday, 01 July 2015

Time	Temp	Chill	HIndex	Humid	Dewpt	 Wind 	HiWind	WindDir	Rain 	Barom
-----	----	-----	------	-----	-----	------	------	-------	-----	-----
00:00	63.9	63.9	63.9	83	58.6	0	3	270	0.00	29.819 
00:05	63.7	63.7	63.7	83	58.4	0	1	270	0.00	29.819 
00:10	63.5	63.5	63.5	83	58.2	1	2	270	0.00	29.819 
00:15	63.4	63.4	63.4	84	58.5	1	3	270	0.00	29.818 
00:20	63.2	63.2	63.2	84	58.3	1	3	270	0.00	29.818 
00:25	63.2	63.2	63.2	84	58.3	1	3	270	0.00	29.818 
00:30	63.1	63.1	63.1	84	58.2	1	3	270	0.00	29.818 
00:35	62.9	62.9	62.9	84	58.0	0	2	270	0.00	29.818 
00:40	62.7	62.7	62.7	85	58.1	1	5	270	0.00	29.818 
00:45	62.7	62.7	62.7	85	58.1	1	3	270	0.00	29.816 
00:50	62.6	62.6	62.6	85	58.0	1	3	270	0.00	29.816 
00:55	62.4	62.4	62.4	85	57.8	1	3	270	0.00	29.816 
01:00	62.3	62.3	62.3	86	58.1	2	4	270	0.00	29.815 
01:05	62.1	62.1	62.1	86	57.9	0	3	270	0.00	29.815 
01:10	62.0	62.0	62.0	86	57.8	1	3	270	0.00	29.815 
01:15	61.8	61.8	61.8	86	57.6	1	4	270	0.00	29.817 
01:20	61.8	61.8	61.8	86	57.6	1	3	270	0.00	29.817 
01:25	61.6	61.6	61.6	87	57.7	1	3	270	0.00	29.817 
01:30	61.6	61.6	61.6	87	57.7	1	3	270	0.00	29.813 
01:35	61.5	61.5	61.5	87	57.6	0	2	270	0.00	29.813 
01:40	61.3	61.3	61.3	87	57.4	0	2	270	0.00	29.813 
01:45	61.3	61.3	61.3	88	57.7	0	2	270	0.00	29.820 
01:50	61.2	61.2	61.2	88	57.6	0	2	270	0.00	29.820 
01:55	61.0	61.0	61.0	88	57.4	1	2	270	0.00	29.820 
02:00	61.0	61.0	61.0	88	57.4	0	2	270	0.00	29.819 
02:05	60.9	60.9	60.9	88	57.3	1	3	270	0.00	29.819 
02:10	60.7	60.7	60.7	88	57.1	1	3	270	0.00	29.819 
02:15	60.5	60.5	60.5	88	56.9	0	2	270	0.00	29.814 
02:20	60.4	60.4	60.4	89	57.1	1	3	270	0.00	29.814 
02:25	60.2	60.2	60.2	89	56.9	0	2	270	0.00	29.814 
02:30	60.2	60.2	60.2	89	56.9	0	1	270	0.00	29.815 
02:35	60.1	60.1	60.1	89	56.8	0	1	270	0.00	29.815 
02:40	59.9	59.9	59.9	89	56.6	0	2	270	0.00	29.815 
02:45	59.8	59.8	59.8	89	56.5	0	1	270	0.00	29.815 
02:50	59.8	59.8	59.8	89	56.5	0	2	270	0.00	29.815 
02:55	59.6	59.6	59.6	89	56.4	0	1	270	0.00	29.815 
03:00	59.6	59.6	59.6	90	56.7	0	1	270	0.00	29.817 
03:05	59.5	59.5	59.5	90	56.6	0	1	270	0.00	29.817 
03:10	59.3	59.3	59.3	90	56.4	0	1	270	0.00	29.817 
03:15	59.3	59.3	59.3	90	56.4	0	1	270	0.00	29.818 
03:20	59.2	59.2	59.2	90	56.3	0	1	270	0.00	29.818 
03:25	59.2	59.2	59.2	91	56.6	0	2	270	0.00	29.818 
03:30	59.0	59.0	59.0	91	56.4	0	1	270	0.00	29.822 
03:35	59.0	59.0	59.0	91	56.4	0	2	270	0.00	29.822 
03:40	58.9	58.9	58.9	91	56.3	0	1	270	0.00	29.822 
03:45	58.9	58.9	58.9	91	56.3	0	1	270	0.00	29.820 
03:50	58.7	58.7	58.7	91	56.1	0	1	270	0.00	29.820 
03:55	58.6	58.6	58.6	91	56.0	0	1	270	0.00	29.820 
04:00	58.6	58.6	58.6	91	56.0	0	2	270	0.00	29.825 
04:05	58.4	58.4	58.4	91	55.8	0	1	270	0.00	29.825 
04:10	58.4	58.4	58.4	91	55.8	0	0	---	0.00	29.825 
04:15	58.3	58.3	58.3	92	56.0	0	1	270	0.00	29.829 
04:20	58.3	58.3	58.3	92	56.0	0	2	270	0.00	29.829 
04:25	58.1	58.1	58.1	92	55.8	0	2	270	0.00	29.829 
04:30	58.1	58.1	58.1	92	55.8	1	3	270	0.00	29.830 
04:35	58.0	58.0	58.0	92	55.7	0	2	270	0.00	29.830 
04:40	58.0	58.0	58.0	92	55.7	1	3	270	0.00	29.830 
04:45	57.8	57.8	57.8	92	55.5	1	3	270	0.00	29.828 
04:50	57.8	57.8	57.8	92	55.5	1	3	270	0.00	29.828 
04:55	57.8	57.8	57.8	92	55.5	1	3	270	0.00	29.828 
05:00	57.6	57.6	57.6	92	55.3	0	2	270	0.00	29.829 
05:05	57.6	57.6	57.6	92	55.3	0	1	270	0.00	29.829 
05:10	57.5	57.5	57.5	92	55.2	0	1	270	0.00	29.829 
05:15	57.5	57.5	57.5	92	55.2	0	1	270	0.00	29.833 
05:20	57.3	57.3	57.3	92	55.0	0	1	270	0.00	29.833 
05:25	57.3	57.3	57.3	92	55.0	0	2	270	0.00	29.833 
05:30	57.2	57.2	57.2	92	54.9	0	1	270	0.00	29.839 
05:35	57.2	57.2	57.2	92	54.9	0	2	270	0.00	29.839 
05:40	57.0	57.0	57.0	92	54.7	0	1	270	0.00	29.839 
05:45	57.0	57.0	57.0	92	54.7	0	1	270	0.00	29.840 
05:50	57.0	57.0	57.0	92	54.7	0	1	270	0.00	29.840 
05:55	56.9	56.9	56.9	92	54.6	0	2	270	0.00	29.840 
06:00	56.9	56.9	56.9	92	54.6	0	1	270	0.00	29.843 
06:05	56.9	56.9	56.9	92	54.6	0	1	270	0.00	29.843 
06:10	56.9	56.9	56.9	92	54.6	0	2	270	0.00	29.843 
06:15	56.9	56.9	56.9	92	54.6	0	2	270	0.00	29.849 
06:20	56.9	56.9	56.9	92	54.6	1	3	270	0.00	29.849 
06:25	56.9	56.9	56.9	92	54.6	0	2	270	0.00	29.849 
06:30	56.9	56.9	56.9	92	54.6	1	3	270	0.00	29.855 
06:35	56.9	56.9	56.9	92	54.6	0	2	270	0.00	29.855 
06:40	56.9	56.9	56.9	92	54.6	0	2	270	0.00	29.855 
06:45	56.9	56.9	56.9	92	54.6	0	3	270	0.00	29.853 
06:50	57.0	57.0	57.0	92	54.7	1	4	270	0.00	29.853 
06:55	57.0	57.0	57.0	92	54.7	0	2	270	0.00	29.853 
07:00	57.0	57.0	57.0	92	54.7	0	3	270	0.00	29.853 
07:05	57.2	57.2	57.2	92	54.9	0	3	270	0.00	29.853 
07:10	57.3	57.3	57.3	92	55.0	1	2	270	0.00	29.853 
07:15	57.5	57.5	57.5	92	55.2	0	2	270	0.00	29.856 
07:20	57.5	57.5	57.5	91	54.9	1	3	270	0.00	29.856 
07:25	57.6	57.6	57.6	91	55.0	1	3	338	0.00	29.856 
07:30	57.8	57.8	57.8	90	54.9	0	3	338	0.00	29.854 
07:35	58.0	58.0	58.0	90	55.1	1	3	338	0.00	29.854 
07:40	58.1	58.1	58.1	89	54.9	1	2	338	0.00	29.854 
07:45	58.4	58.4	58.4	89	55.2	1	2	338	0.00	29.854 
07:50	58.7	58.7	58.7	88	55.2	0	3	338	0.00	29.854 
07:55	58.9	58.9	58.9	88	55.3	1	4	338	0.00	29.854 
08:00	59.0	59.0	59.0	86	54.8	1	3	315	0.00	29.865 
08:05	59.5	59.5	59.5	86	55.3	0	3	315	0.00	29.865 
08:10	59.9	59.9	59.9	85	55.4	1	3	315	0.00	29.865 
08:15	60.1	60.1	60.1	84	55.2	1	5	315	0.00	29.871 
08:20	60.2	60.2	60.2	84	55.3	1	4	292	0.00	29.871 
08:25	60.5	60.5	60.5	83	55.3	2	4	292	0.00	29.871 
08:30	60.5	60.5	60.5	83	55.3	2	4	292	0.00	29.876 
08:35	60.9	60.9	60.9	83	55.7	2	4	292	0.00	29.876 
08:40	61.2	61.2	61.2	82	55.7	1	4	315	0.00	29.876 
08:45	61.5	61.5	61.5	82	55.9	1	3	315	0.00	29.886 
08:50	61.6	61.6	61.6	81	55.7	1	4	292	0.00	29.886 
08:55	61.6	61.6	61.6	81	55.7	2	5	292	0.00	29.886 
09:00	61.5	61.5	61.5	81	55.6	2	5	292	0.00	29.892 
09:05	61.5	61.5	61.5	81	55.6	2	6	338	0.00	29.892 
09:10	61.3	61.3	61.3	81	55.4	3	5	315	0.00	29.892 
09:15	61.2	61.2	61.2	81	55.3	3	5	315	0.00	29.901 
09:20	60.9	60.9	60.9	81	55.0	2	7	270	0.00	29.901 
09:25	60.7	60.7	60.7	82	55.2	1	4	270	0.00	29.901 
09:30	61.2	61.2	61.2	83	56.0	1	3	270	0.00	29.902 
09:35	61.5	61.5	61.5	81	55.6	1	3	270	0.00	29.902 
09:40	61.6	61.6	61.6	81	55.7	1	5	270	0.00	29.902 
09:45	62.0	62.0	62.0	80	55.8	1	5	0	0.00	29.899 
09:50	62.1	62.1	62.1	80	55.9	1	4	292	0.00	29.899 
09:55	62.4	62.4	62.4	79	55.8	1	4	315	0.00	29.899 
10:00	62.9	62.9	62.9	79	56.3	0	2	315	0.00	29.896 
10:05	63.1	63.1	63.1	77	55.8	1	3	315	0.00	29.896 
10:10	63.2	63.2	63.2	77	55.9	0	2	315	0.00	29.896 
10:15	63.7	63.7	63.7	78	56.7	0	1	315	0.00	29.895 
10:20	64.2	64.2	64.2	76	56.5	1	3	315	0.00	29.895 
10:25	64.2	64.2	64.2	75	56.1	1	3	315	0.00	29.895 
10:30	64.3	64.3	64.3	75	56.2	1	4	315	0.00	29.899 
10:35	64.5	64.5	64.5	75	56.4	1	3	315	0.00	29.899 
10:40	65.0	65.0	65.0	74	56.5	1	3	338	0.00	29.899 
10:45	65.0	65.0	65.0	73	56.1	1	4	338	0.00	29.900 
10:50	65.0	65.0	65.0	73	56.1	2	5	292	0.00	29.900 
10:55	65.2	65.2	65.2	72	55.9	1	4	315	0.00	29.900 
11:00	65.6	65.6	65.6	71	55.9	2	5	292	0.00	29.901 
11:05	66.0	66.0	66.0	70	55.9	2	5	292	0.00	29.901 
11:10	66.3	66.3	66.3	73	57.4	1	3	292	0.00	29.901 
11:15	66.8	66.8	66.8	72	57.5	1	3	292	0.00	29.904 
11:20	66.9	66.9	66.9	69	56.4	1	3	292	0.00	29.904 
11:25	67.1	67.1	67.1	70	57.0	1	4	292	0.00	29.904 
11:30	67.3	67.3	67.3	69	56.8	1	4	292	0.00	29.908 
11:35	67.6	67.6	67.6	69	57.1	1	4	315	0.00	29.908 
11:40	67.8	67.8	67.8	68	56.8	1	5	315	0.00	29.908 
11:45	68.1	68.1	68.1	68	57.1	1	4	315	0.00	29.904 
11:50	68.4	68.4	68.4	69	57.8	0	4	292	0.00	29.904 
11:55	68.8	68.8	68.8	68	57.8	0	3	292	0.00	29.904 
12:00	69.4	69.4	69.4	69	58.8	1	3	292	0.00	29.902 
12:05	69.4	69.4	69.4	66	57.5	1	3	292	0.00	29.902 
12:10	69.6	69.6	69.6	68	58.6	1	4	292	0.00	29.902 
12:15	69.8	69.8	69.8	65	57.5	2	4	292	0.00	29.906 
12:20	69.8	69.8	69.8	66	57.9	1	4	292	0.00	29.906 
12:25	69.8	69.8	69.8	65	57.5	2	4	292	0.00	29.906 
12:30	70.1	70.1	70.1	66	58.2	1	6	292	0.00	29.910 
12:35	70.3	70.3	70.3	65	58.0	1	3	270	0.00	29.910 
12:40	70.4	70.4	70.4	63	57.2	2	5	270	0.00	29.910 
12:45	70.6	70.6	70.6	62	56.9	2	5	270	0.00	29.906 
12:50	70.9	70.9	70.9	63	57.7	1	4	270	0.00	29.906 
12:55	71.1	71.1	71.1	63	57.9	1	4	270	0.00	29.906 
13:00	71.5	71.5	71.5	61	57.3	2	5	270	0.00	29.898 
13:05	71.6	71.6	71.6	61	57.4	2	5	270	0.00	29.898 
13:10	72.0	72.0	72.0	61	57.8	2	5	270	0.00	29.898 
13:15	71.8	71.8	71.8	59	56.7	3	5	292	0.00	29.900 
13:20	71.8	71.8	71.8	61	57.6	2	6	292	0.00	29.900 
13:25	71.5	71.5	71.5	60	56.9	1	4	292	0.00	29.900 
13:30	71.6	71.6	71.6	60	57.0	2	5	315	0.00	29.896 
13:35	71.5	71.5	71.5	60	56.9	2	4	315	0.00	29.896 
13:40	71.6	71.6	71.6	61	57.4	2	5	315	0.00	29.896 
13:45	71.5	71.5	71.5	61	57.3	2	5	315	0.00	29.896 
13:50	71.5	71.5	71.5	62	57.8	1	4	315	0.00	29.896 
13:55	72.0	72.0	72.0	63	58.7	0	2	315	0.00	29.896 
14:00	72.5	72.5	72.5	60	57.8	2	5	315	0.00	29.894 
14:05	72.8	72.8	72.8	59	57.6	2	5	315	0.00	29.894 
14:10	72.8	72.8	72.8	60	58.1	2	4	315	0.00	29.894 
14:15	73.0	73.0	73.0	60	58.3	2	5	292	0.00	29.886 
14:20	73.2	73.2	73.2	60	58.5	2	6	338	0.00	29.886 
14:25	73.3	73.3	73.3	58	57.6	1	4	292	0.00	29.886 
14:30	73.0	73.0	73.0	58	57.3	1	4	292	0.00	29.884 
14:35	72.8	72.8	72.8	58	57.1	1	4	292	0.00	29.884 
14:40	73.2	73.2	73.2	57	57.0	2	5	292	0.00	29.884 
14:45	73.3	73.3	73.3	57	57.1	2	5	292	0.00	29.882 
14:50	73.0	73.0	73.0	55	55.9	2	5	338	0.00	29.882 
14:55	72.8	72.8	72.8	57	56.7	2	6	315	0.00	29.882 
15:00	72.5	72.5	72.5	58	56.9	2	5	270	0.00	29.881 
15:05	72.1	72.1	72.1	58	56.5	1	4	270	0.00	29.881 
15:10	72.0	72.0	72.0	58	56.4	2	4	270	0.00	29.881 
15:15	72.5	72.5	72.5	59	57.3	1	3	270	0.00	29.876 
15:20	72.5	72.5	72.5	59	57.3	2	5	270	0.00	29.876 
15:25	72.7	72.7	72.7	59	57.5	1	5	315	0.00	29.876 
15:30	72.5	72.5	72.5	58	56.9	2	4	315	0.00	29.875 
15:35	72.7	72.7	72.7	59	57.5	1	3	315	0.00	29.875 
15:40	72.5	72.5	72.5	58	56.9	2	5	315	0.00	29.875 
15:45	72.3	72.3	72.3	58	56.7	1	3	315	0.00	29.873 
15:50	72.1	72.1	72.1	58	56.5	2	5	292	0.00	29.873 
15:55	72.5	72.5	72.5	57	56.4	2	5	292	0.00	29.873 
16:00	72.5	72.5	72.5	58	56.9	2	4	292	0.00	29.876 
16:05	72.5	72.5	72.5	60	57.8	1	3	292	0.00	29.876 
16:10	72.5	72.5	72.5	58	56.9	2	4	292	0.00	29.876 
16:15	72.5	72.5	72.5	58	56.9	1	4	292	0.00	29.877 
16:20	72.8	72.8	72.8	59	57.6	1	4	292	0.00	29.877 
16:25	73.3	73.3	73.3	55	56.1	2	5	292	0.00	29.877 
16:30	74.0	74.0	74.0	55	56.8	2	4	292	0.00	29.874 
16:35	74.2	74.2	74.2	54	56.5	2	5	292	0.00	29.874 
16:40	74.6	74.6	74.6	55	57.3	1	3	292	0.00	29.874 
16:45	75.1	75.1	77.6	56	58.3	0	2	292	0.00	29.867 
16:50	75.3	75.3	77.7	52	56.4	2	4	292	0.00	29.867 
16:55	75.3	75.3	77.7	53	57.0	2	5	292	0.00	29.867 
17:00	75.3	75.3	77.7	52	56.4	1	4	292	0.00	29.866 
17:05	75.3	75.3	77.7	51	55.9	1	5	292	0.00	29.866 
17:10	75.4	75.4	77.8	50	55.4	1	5	315	0.00	29.866 
17:15	75.3	75.3	77.7	50	55.4	2	4	292	0.00	29.869 
17:20	75.3	75.3	77.7	51	55.9	2	4	292	0.00	29.869 
17:25	75.1	75.1	77.6	52	56.3	1	3	292	0.00	29.869 
17:30	74.9	74.9	74.9	50	55.0	2	4	292	0.00	29.867 
17:35	75.1	75.1	77.6	52	56.3	1	3	292	0.00	29.867 
17:40	74.9	74.9	74.9	50	55.0	2	4	292	0.00	29.867 
17:45	74.0	74.0	74.0	51	54.7	3	5	292	0.00	29.871 
17:50	73.3	73.3	73.3	53	55.1	2	4	292	0.00	29.871 
17:55	73.0	73.0	73.0	54	55.4	1	4	292	0.00	29.871 
18:00	72.7	72.7	72.7	53	54.6	2	3	292	0.00	29.870 
18:05	72.7	72.7	72.7	54	55.1	1	3	292	0.00	29.870 
18:10	73.0	73.0	73.0	55	55.9	1	3	292	0.00	29.870 
18:15	73.2	73.2	73.2	53	55.0	2	4	292	0.00	29.869 
18:20	73.3	73.3	73.3	55	56.1	1	4	292	0.00	29.869 
18:25	73.3	73.3	73.3	54	55.6	1	3	292	0.00	29.869 
18:30	73.3	73.3	73.3	55	56.1	1	3	292	0.00	29.868 
18:35	73.2	73.2	73.2	55	56.0	1	4	292	0.00	29.868 
18:40	73.0	73.0	73.0	55	55.9	1	3	292	0.00	29.868 
18:45	73.0	73.0	73.0	54	55.4	2	4	292	0.00	29.866 
18:50	72.8	72.8	72.8	54	55.2	1	3	292	0.00	29.866 
18:55	72.8	72.8	72.8	55	55.7	1	4	292	0.00	29.866 
19:00	72.7	72.7	72.7	56	56.1	1	3	292	0.00	29.868 
19:05	72.7	72.7	72.7	57	56.6	0	2	292	0.00	29.868 
19:10	72.5	72.5	72.5	57	56.4	1	3	292	0.00	29.868 
19:15	72.3	72.3	72.3	58	56.7	1	2	292	0.00	29.865 
19:20	72.1	72.1	72.1	57	56.0	2	4	292	0.00	29.865 
19:25	72.0	72.0	72.0	58	56.4	1	3	292	0.00	29.865 
19:30	71.8	71.8	71.8	58	56.2	2	4	292	0.00	29.869 
19:35	71.6	71.6	71.6	59	56.5	1	3	292	0.00	29.869 
19:40	71.6	71.6	71.6	60	57.0	1	2	292	0.00	29.869 
19:45	71.3	71.3	71.3	59	56.2	1	4	292	0.00	29.871 
19:50	70.9	70.9	70.9	59	55.8	1	4	292	0.00	29.871 
19:55	70.6	70.6	70.6	60	56.0	1	3	292	0.00	29.871 
20:00	70.3	70.3	70.3	60	55.7	1	3	292	0.00	29.876 
20:05	69.9	69.9	69.9	61	55.8	1	3	292	0.00	29.876 
20:10	69.8	69.8	69.8	62	56.2	0	2	292	0.00	29.876 
20:15	69.6	69.6	69.6	62	56.0	0	3	292	0.00	29.876 
20:20	69.3	69.3	69.3	62	55.7	0	3	292	0.00	29.876 
20:25	69.1	69.1	69.1	62	55.5	0	2	292	0.00	29.876 
20:30	68.9	68.9	68.9	62	55.3	1	3	292	0.00	29.886 
20:35	68.8	68.8	68.8	62	55.2	0	2	292	0.00	29.886 
20:40	68.6	68.6	68.6	63	55.5	0	1	292	0.00	29.886 
20:45	68.4	68.4	68.4	64	55.7	0	2	292	0.00	29.889 
20:50	68.3	68.3	68.3	64	55.6	0	2	292	0.00	29.889 
20:55	68.1	68.1	68.1	64	55.5	0	1	292	0.00	29.889 
21:00	67.9	67.9	67.9	65	55.7	0	1	292	0.00	29.896 
21:05	67.8	67.8	67.8	65	55.6	0	1	292	0.00	29.896 
21:10	67.6	67.6	67.6	65	55.4	0	1	292	0.00	29.896 
21:15	67.3	67.3	67.3	66	55.5	0	2	292	0.00	29.900 
21:20	66.9	66.9	66.9	66	55.2	1	3	292	0.00	29.900 
21:25	66.6	66.6	66.6	64	54.0	0	3	292	0.00	29.900 
21:30	66.3	66.3	66.3	63	53.3	0	3	292	0.00	29.900 
21:35	66.0	66.0	66.0	62	52.6	0	2	292	0.00	29.900 
21:40	65.8	65.8	65.8	63	52.8	0	1	292	0.00	29.900 
21:45	65.8	65.8	65.8	63	52.8	0	1	292	0.00	29.903 
21:50	65.6	65.6	65.6	64	53.1	0	2	292	0.00	29.903 
21:55	65.5	65.5	65.5	64	53.0	0	2	292	0.00	29.903 
22:00	65.2	65.2	65.2	65	53.1	0	1	292	0.00	29.904 
22:05	65.0	65.0	65.0	65	52.9	0	1	292	0.00	29.904 
22:10	64.8	64.8	64.8	65	52.8	0	1	292	0.00	29.904 
22:15	64.7	64.7	64.7	66	53.1	0	0	---	0.00	29.905 
22:20	64.5	64.5	64.5	66	52.9	0	0	---	0.00	29.905 
22:25	64.3	64.3	64.3	67	53.1	0	0	---	0.00	29.905 
22:30	64.0	64.0	64.0	67	52.8	0	1	292	0.00	29.911 
22:35	63.9	63.9	63.9	66	52.3	0	0	---	0.00	29.911 
22:40	63.7	63.7	63.7	67	52.5	0	0	---	0.00	29.911 
22:45	63.4	63.4	63.4	67	52.2	0	0	---	0.00	29.917 
22:50	63.2	63.2	63.2	68	52.5	0	0	---	0.00	29.917 
22:55	63.1	63.1	63.1	68	52.4	0	1	292	0.00	29.917 
23:00	62.9	62.9	62.9	69	52.6	0	0	---	0.00	29.918 
23:05	62.7	62.7	62.7	69	52.4	0	0	---	0.00	29.918 
23:10	62.7	62.7	62.7	69	52.4	0	1	292	0.00	29.918 
23:15	62.7	62.7	62.7	70	52.8	0	1	292	0.00	29.914 
23:20	62.6	62.6	62.6	70	52.7	0	0	---	0.00	29.914 
23:25	62.4	62.4	62.4	71	52.9	0	0	---	0.00	29.914 
23:30	62.3	62.3	62.3	73	53.5	0	1	292	0.00	29.917 
23:35	62.1	62.1	62.1	74	53.7	0	1	292	0.00	29.917 
23:40	61.8	61.8	61.8	75	53.8	0	1	292	0.00	29.917 
23:45	61.6	61.6	61.6	76	54.0	0	1	292	0.00	29.917 
23:50	61.5	61.5	61.5	77	54.2	0	1	292	0.00	29.917 
23:55	61.2	61.2	61.2	77	53.9	0	1	292	0.00	29.917 

CoCoRaHS
IN-AL-39
A2 Web Hosting
Creative Commons License
GoDaddy
search engine by freefind advanced

loaded 2018-11-20 07:32:13 • last modified 2010-11-18 10:43:29
Privacy PolicyDisclaimer
• wx.awcolley.com is powered by PmWiki v.2002016 •
• all content (unless otherwise noted) © 2018 A W Colley